When you browse on this site, cookies collect data to enhance your experience and personalize the content and advertising you see.
Visit our Privacy Policy to learn more. By continuing to use the site, you agree to this use of cookies and data.
  • Em Portugal
  • Lista de países
  • Para 7 dias
  • Temperatura da água
  • Mapas de satélite
  • Mapa do tempo
  • Widgets de tempo
  • user-avatar
    Iniciar Sessão

    Previsão horária em Sergincy

    Hoje, 18 Fevereiro, Segunda-feira

    Tempo Temperatura Precipitação Vento Pressão Humidade
    00:00 -6°C° 0.1 mm 3 m/s 724 mmHg 91%
    01:00 -6°C° 0.1 mm 3 m/s 723 mmHg 91%
    02:00 -6°C° 0.2 mm 3 m/s 723 mmHg 92%
    03:00 -6°C° 0.2 mm 3 m/s 723 mmHg 92%
    04:00 -5°C° 0 mm 2 m/s 723 mmHg 94%
    05:00 -5°C° 0.2 mm 2 m/s 723 mmHg 94%
    06:00 -5°C° 0.2 mm 2 m/s 723 mmHg 95%
    07:00 -5°C° 0.2 mm 2 m/s 723 mmHg 95%
    08:00 -5°C° 0.1 mm 2 m/s 723 mmHg 94%
    09:00 -5°C° 0.1 mm 2 m/s 723 mmHg 94%
    10:00 -2°C° 0.1 mm 1 m/s 723 mmHg 93%
    11:00 -2°C° 0.1 mm 1 m/s 723 mmHg 91%
    12:00 -2°C° 0.1 mm 0 m/s 724 mmHg 90%
    13:00 -2°C° 0.1 mm 0 m/s 724 mmHg 88%
    14:00 -2°C° 0.2 mm 0 m/s 724 mmHg 89%
    15:00 -1°C° 0.2 mm 1 m/s 725 mmHg 91%
    16:00 -1°C° 0.2 mm 1 m/s 725 mmHg 92%
    17:00 -4°C° 0.2 mm 2 m/s 726 mmHg 93%
    18:00 -4°C° 0.2 mm 2 m/s 727 mmHg 94%
    19:00 -5°C° 0.2 mm 2 m/s 727 mmHg 95%
    20:00 -8°C° 0.2 mm 4 m/s 728 mmHg 92%
    21:00 -10°C° 0.2 mm 5 m/s 729 mmHg 89%
    22:00 -11°C° 0.2 mm 6 m/s 729 mmHg 86%
    23:00 -12°C° 0.1 mm 6 m/s 730 mmHg 85%

    Amanhã, 19 Fevereiro, Terça-feira

    Tempo Temperatura Precipitação Vento Pressão Humidade
    00:00 -14°C° 0.1 mm 6 m/s 731 mmHg 85%
    01:00 -15°C° 0.1 mm 6 m/s 732 mmHg 85%
    02:00 -16°C° 0 mm 6 m/s 732 mmHg 84%
    03:00 -17°C° 0 mm 6 m/s 733 mmHg 84%
    04:00 -17°C° 0 mm 6 m/s 734 mmHg 84%
    05:00 -18°C° 0 mm 6 m/s 735 mmHg 84%
    06:00 -20°C° 0 mm 6 m/s 736 mmHg 84%
    07:00 -21°C° 0 mm 6 m/s 736 mmHg 85%
    08:00 -21°C° 0 mm 6 m/s 737 mmHg 85%
    09:00 -21°C° 0 mm 5 m/s 738 mmHg 85%
    10:00 -21°C° 0 mm 5 m/s 738 mmHg 85%
    11:00 -20°C° 0 mm 5 m/s 738 mmHg 85%
    12:00 -20°C° 0 mm 5 m/s 739 mmHg 85%
    13:00 -18°C° 0 mm 4 m/s 739 mmHg 85%
    14:00 -18°C° 0 mm 4 m/s 740 mmHg 86%
    15:00 -17°C° 0 mm 3 m/s 740 mmHg 86%
    16:00 -17°C° 0 mm 3 m/s 740 mmHg 87%
    17:00 -18°C° 0 mm 3 m/s 741 mmHg 90%
    18:00 -19°C° 0 mm 2 m/s 741 mmHg 92%
    19:00 -18°C° 0 mm 1 m/s 741 mmHg 95%
    20:00 -18°C° 0 mm 1 m/s 741 mmHg 95%
    21:00 -18°C° 0 mm 1 m/s 741 mmHg 94%
    22:00 -18°C° 0 mm 1 m/s 742 mmHg 94%
    23:00 -18°C° 0 mm 1 m/s 742 mmHg 94%

    Depois de amanhã, 20 Fevereiro, Quarta-feira

    Tempo Temperatura Precipitação Vento Pressão Humidade
    00:00 -18°C° 0 mm 1 m/s 742 mmHg 93%
    01:00 -18°C° 0 mm 1 m/s 742 mmHg 93%
    02:00 -19°C° 0 mm 1 m/s 742 mmHg 92%
    03:00 -19°C° 0 mm 1 m/s 742 mmHg 92%
    04:00 -20°C° 0 mm 1 m/s 742 mmHg 92%
    05:00 -20°C° 0 mm 1 m/s 742 mmHg 92%
    06:00 -20°C° 0 mm 1 m/s 742 mmHg 91%
    07:00 -23°C° 0 mm 2 m/s 742 mmHg 91%
    08:00 -20°C° 0 mm 2 m/s 742 mmHg 90%
    09:00 -19°C° 0 mm 2 m/s 742 mmHg 89%
    10:00 -18°C° 0 mm 3 m/s 742 mmHg 88%
    11:00 -17°C° 0 mm 3 m/s 742 mmHg 89%
    12:00 -15°C° 0 mm 3 m/s 741 mmHg 89%
    13:00 -13°C° 0 mm 3 m/s 741 mmHg 90%
    14:00 -14°C° 0 mm 4 m/s 741 mmHg 90%
    15:00 -12°C° 0 mm 4 m/s 741 mmHg 90%
    16:00 -12°C° 0 mm 4 m/s 740 mmHg 91%
    17:00 -12°C° 0.1 mm 4 m/s 740 mmHg 91%
    18:00 -12°C° 0.1 mm 4 m/s 740 mmHg 91%
    19:00 -14°C° 0.1 mm 4 m/s 739 mmHg 91%
    20:00 -12°C° 0.1 mm 4 m/s 739 mmHg 90%
    21:00 -12°C° 0.1 mm 4 m/s 738 mmHg 89%
    22:00 -11°C° 0.1 mm 4 m/s 738 mmHg 88%
    23:00 -12°C° 0.1 mm 5 m/s 737 mmHg 88%

    21 Fevereiro, Quinta-feira

    Tempo Temperatura Precipitação Vento Pressão Humidade
    00:00 -11°C° 0.1 mm 5 m/s 736 mmHg 88%
    01:00 -11°C° 0.1 mm 5 m/s 736 mmHg 88%
    02:00 -11°C° 0.2 mm 5 m/s 736 mmHg 89%
    03:00 -11°C° 0.2 mm 5 m/s 735 mmHg 90%
    04:00 -10°C° 0.2 mm 5 m/s 735 mmHg 91%
    05:00 -10°C° 0.1 mm 5 m/s 735 mmHg 90%
    06:00 -8°C° 0.1 mm 5 m/s 734 mmHg 90%
    07:00 -7°C° 0.1 mm 5 m/s 734 mmHg 90%
    08:00 -7°C° 0 mm 5 m/s 734 mmHg 89%
    09:00 -6°C° 0 mm 5 m/s 734 mmHg 89%
    10:00 -5°C° 0 mm 5 m/s 734 mmHg 88%
    11:00 -5°C° 0 mm 5 m/s 735 mmHg 88%
    12:00 -4°C° 0 mm 5 m/s 735 mmHg 88%
    13:00 -4°C° 0 mm 5 m/s 735 mmHg 88%
    14:00 -4°C° 0.1 mm 5 m/s 735 mmHg 88%
    15:00 -4°C° 0.1 mm 5 m/s 735 mmHg 88%
    16:00 -4°C° 0.1 mm 5 m/s 736 mmHg 88%
    17:00 -3°C° 0.1 mm 4 m/s 736 mmHg 88%
    18:00 -4°C° 0.1 mm 4 m/s 736 mmHg 89%
    19:00 -5°C° 0.1 mm 4 m/s 736 mmHg 89%
    20:00 -5°C° 0 mm 4 m/s 736 mmHg 90%
    21:00 -5°C° 0 mm 3 m/s 736 mmHg 91%
    22:00 -6°C° 0 mm 3 m/s 736 mmHg 92%
    23:00 -6°C° 0.1 mm 3 m/s 736 mmHg 92%

    22 Fevereiro, Sexta-feira

    Tempo Temperatura Precipitação Vento Pressão Humidade
    00:00 -6°C° 0.1 mm 3 m/s 736 mmHg 92%
    01:00 -6°C° 0.1 mm 3 m/s 736 mmHg 93%
    02:00 -6°C° 0.1 mm 3 m/s 736 mmHg 93%
    03:00 -7°C° 0.1 mm 3 m/s 736 mmHg 93%
    04:00 -6°C° 0.1 mm 2 m/s 735 mmHg 93%
    05:00 -6°C° 0.1 mm 2 m/s 735 mmHg 94%
    06:00 -6°C° 0.1 mm 2 m/s 735 mmHg 94%
    07:00 -6°C° 0.1 mm 2 m/s 735 mmHg 95%
    08:00 -5°C° 0.2 mm 2 m/s 735 mmHg 94%
    09:00 -4°C° 0.2 mm 2 m/s 735 mmHg 94%
    10:00 -3°C° 0.2 mm 2 m/s 735 mmHg 93%
    11:00 -2°C° 0.2 mm 2 m/s 735 mmHg 93%
    12:00 -2°C° 0.2 mm 3 m/s 735 mmHg 93%
    13:00 -1°C° 0.2 mm 3 m/s 735 mmHg 92%
    14:00 -1°C° 0.3 mm 3 m/s 735 mmHg 91%
    15:00 -1°C° 0.3 mm 3 m/s 735 mmHg 90%
    16:00 -1°C° 0.3 mm 3 m/s 735 mmHg 89%
    17:00 -2°C° 0.2 mm 3 m/s 735 mmHg 91%
    18:00 -3°C° 0.2 mm 2 m/s 735 mmHg 93%
    19:00 -4°C° 0.2 mm 2 m/s 736 mmHg 94%
    20:00 -4°C° 0.5 mm 2 m/s 736 mmHg 95%
    21:00 -4°C° 0.5 mm 2 m/s 736 mmHg 96%
    22:00 -4°C° 0.5 mm 2 m/s 736 mmHg 97%
    23:00 -6°C° 0.8 mm 2 m/s 736 mmHg 97%

    23 Fevereiro, Sábado

    Tempo Temperatura Precipitação Vento Pressão Humidade
    00:00 -9°C° 0.8 mm 3 m/s 737 mmHg 97%
    01:00 -12°C° 0.8 mm 3 m/s 737 mmHg 96%
    02:00 -13°C° 0.2 mm 3 m/s 737 mmHg 95%
    03:00 -15°C° 0.2 mm 3 m/s 738 mmHg 94%
    04:00 -16°C° 0.2 mm 3 m/s 738 mmHg 93%
    05:00 -16°C° 0.1 mm 3 m/s 739 mmHg 93%
    06:00 -16°C° 0.1 mm 3 m/s 739 mmHg 93%
    07:00 -16°C° 0.1 mm 3 m/s 740 mmHg 93%
    08:00 -16°C° 0.1 mm 3 m/s 740 mmHg 93%
    09:00 -15°C° 0.1 mm 3 m/s 741 mmHg 92%
    10:00 -15°C° 0.1 mm 3 m/s 742 mmHg 92%
    11:00 -15°C° 0.1 mm 3 m/s 742 mmHg 92%
    12:00 -15°C° 0.1 mm 3 m/s 743 mmHg 91%
    13:00 -14°C° 0.1 mm 3 m/s 744 mmHg 91%
    14:00 -14°C° 0.1 mm 3 m/s 744 mmHg 91%
    15:00 -15°C° 0.1 mm 3 m/s 745 mmHg 91%
    16:00 -14°C° 0.1 mm 2 m/s 745 mmHg 90%
    17:00 -14°C° 0 mm 2 m/s 746 mmHg 92%
    18:00 -15°C° 0 mm 2 m/s 746 mmHg 94%
    19:00 -14°C° 0 mm 1 m/s 747 mmHg 95%
    20:00 -15°C° 0 mm 1 m/s 747 mmHg 96%
    21:00 -16°C° 0 mm 1 m/s 747 mmHg 96%
    22:00 -17°C° 0 mm 1 m/s 747 mmHg 97%
    23:00 -17°C° 0 mm 1 m/s 748 mmHg 97%
    Mostrar mais